| time (UTC) | temp C | wind direction | speed KPH | gust KPH | rain 1hr cm | rain 24hr cm | rain mn cm | humidity % | barometer mb |
| 20260905070053 | 9 | 0 | 0.0 | 0.0 | 0.18 | 0.41 | 0.41 | 96 | 1000.2 |
| 20260905065532 | 9 | 0 | 0.0 | 0.0 | 0.18 | 0.38 | 0.38 | 96 | 1000.2 |
| 20260905065031 | 9 | 0 | 0.0 | 0.0 | 0.18 | 0.36 | 0.36 | 96 | 1000.2 |
| 20260905064558 | 9 | 0 | 0.0 | 0.0 | 0.18 | 0.36 | 0.36 | 96 | 1000.1 |
| 20260905064031 | 9 | 0 | 0.0 | 1.6 | 0.18 | 0.36 | 0.36 | 96 | 999.9 |
| 20260905063532 | 9 | 0 | 0.0 | 4.8 | 0.18 | 0.36 | 0.36 | 96 | 999.8 |
| 20260905063048 | 9 | 92 | 1.6 | 4.8 | 0.18 | 0.30 | 0.30 | 96 | 999.9 |
| 20260905062532 | 9 | 134 | 0.0 | 3.2 | 0.18 | 0.28 | 0.28 | 95 | 999.9 |
| 20260905062032 | 8 | 0 | 0.0 | 3.2 | 0.18 | 0.25 | 0.25 | 96 | 1000.0 |
| 20260905061547 | 8 | 0 | 0.0 | 1.6 | 0.18 | 0.25 | 0.25 | 96 | 1000.0 |
| 20260905061033 | 8 | 0 | 0.0 | 1.6 | 0.18 | 0.25 | 0.25 | 96 | 999.7 |
| 20260905060532 | 8 | 0 | 0.0 | 1.6 | 0.18 | 0.25 | 0.25 | 96 | 999.8 |
| 20260905060056 | 8 | 0 | 0.0 | 1.6 | 0.18 | 0.23 | 0.23 | 96 | 999.8 |
| 20260905055533 | 8 | 0 | 0.0 | 1.6 | 0.18 | 0.20 | 0.20 | 96 | 999.7 |
| 20260905055032 | 8 | 285 | 0.0 | 3.2 | 0.15 | 0.18 | 0.18 | 96 | 999.6 |
| 20260905054553 | 8 | 0 | 0.0 | 3.2 | 0.15 | 0.18 | 0.18 | 96 | 999.5 |
| 20260905054037 | 8 | 250 | 1.6 | 3.2 | 0.15 | 0.18 | 0.18 | 96 | 999.5 |
| 20260905053533 | 8 | 0 | 0.0 | 3.2 | 0.10 | 0.15 | 0.15 | 96 | 999.3 |
| 20260905053048 | 8 | 0 | 1.6 | 3.2 | 0.08 | 0.10 | 0.10 | 95 | 999.4 |
| 20260905052532 | 8 | 0 | 0.0 | 6.4 | 0.05 | 0.08 | 0.08 | 95 | 999.5 |
| 20260905052033 | 8 | 252 | 3.2 | 6.4 | 0.03 | 0.05 | 0.05 | 95 | 999.5 |
| 20260905051548 | 8 | 266 | 0.0 | 4.8 | 0.05 | 0.05 | 0.05 | 96 | 999.4 |
| 20260905051036 | 8 | 0 | 0.0 | 6.4 | 0.05 | 0.05 | 0.05 | 96 | 999.3 |
| 20260905050532 | 8 | 0 | 0.0 | 8.0 | 0.05 | 0.05 | 0.05 | 96 | 999.3 |
| 20260905050058 | 8 | 14 | 4.8 | 8.0 | 0.03 | 0.03 | 0.03 | 95 | 999.3 |
| 20260905045533 | 8 | 340 | 3.2 | 6.4 | 0.03 | 0.03 | 0.03 | 95 | 999.3 |
| 20260905045032 | 8 | 329 | 3.2 | 4.8 | 0.03 | 0.03 | 0.03 | 95 | 999.4 |
| 20260905044550 | 8 | 335 | 0.0 | 3.2 | 0.03 | 0.03 | 0.03 | 95 | 999.3 |
| 20260905044034 | 8 | 0 | 0.0 | 0.0 | 0.03 | 0.03 | 0.03 | 95 | 999.2 |
| 20260905043533 | 8 | 0 | 0.0 | 3.2 | 0.03 | 0.03 | 0.03 | 95 | 999.3 |
| 20260905043049 | 8 | 0 | 0.0 | 3.2 | 0.03 | 0.03 | 0.03 | 95 | 999.3 |
| 20260905042532 | 8 | 0 | 0.0 | 0.0 | 0.03 | 0.03 | 0.03 | 95 | 999.2 |
| 20260905042032 | 8 | 0 | 0.0 | 0.0 | 0.00 | 0.00 | 0.00 | 95 | 999.1 |
| 20260905041549 | 8 | 0 | 0.0 | 0.0 | 0.00 | 0.00 | 0.00 | 95 | 999.1 |
| 20260905041032 | 8 | 0 | 0.0 | 0.0 | 0.00 | 0.00 | 0.00 | 95 | 999.1 |
| 20260905040532 | 8 | 0 | 0.0 | 0.0 | 0.00 | 0.00 | 0.00 | 95 | 999.1 |
| 20260905040048 | 8 | 0 | 0.0 | 0.0 | 0.00 | 0.00 | 0.00 | 95 | 999.1 |
| 20260905035533 | 8 | 0 | 0.0 | 0.0 | 0.00 | 0.00 | 0.00 | 95 | 999.1 |
| 20260905035032 | 8 | 0 | 0.0 | 0.0 | 0.00 | 0.00 | 0.00 | 95 | 999.0 |
| 20260905034550 | 8 | 0 | 0.0 | 0.0 | 0.00 | 0.00 | 0.00 | 95 | 999.2 |
| 20260905034034 | 8 | 0 | 0.0 | 0.0 | 0.00 | 0.00 | 0.00 | 95 | 999.2 |
| 20260905033533 | 8 | 0 | 0.0 | 0.0 | 0.00 | 0.00 | 0.00 | 95 | 999.2 |
| 20260905033058 | 8 | 0 | 0.0 | 0.0 | 0.00 | 0.00 | 0.00 | 95 | 999.1 |
| 20260905032533 | 8 | 0 | 0.0 | 0.0 | 0.00 | 0.00 | 0.00 | 95 | 999.1 |
| 20260905032032 | 8 | 0 | 0.0 | 0.0 | 0.00 | 0.00 | 0.00 | 95 | 999.0 |
| 20260905031556 | 8 | 0 | 0.0 | 0.0 | 0.00 | 0.00 | 0.00 | 95 | 999.0 |
| 20260905031034 | 8 | 0 | 0.0 | 0.0 | 0.00 | 0.00 | 0.00 | 95 | 999.1 |
| 20260905030534 | 8 | 0 | 0.0 | 0.0 | 0.00 | 0.00 | 0.00 | 95 | 999.1 |
| 20260905030119 | 8 | 0 | 0.0 | 0.0 | 0.00 | 0.00 | 0.00 | 95 | 999.1 |
| 20260905025534 | 8 | 0 | 0.0 | 0.0 | 0.00 | 0.05 | 0.00 | 95 | 999.1 |
| 20260905025034 | 8 | 0 | 0.0 | 0.0 | 0.00 | 0.05 | 0.00 | 95 | 999.0 |
| 20260905024604 | 8 | 0 | 0.0 | 0.0 | 0.00 | 0.05 | 0.00 | 95 | 999.0 |
| 20260905024035 | 8 | 0 | 0.0 | 0.0 | 0.00 | 0.05 | 0.00 | 95 | 999.0 |
| 20260905023535 | 8 | 0 | 0.0 | 0.0 | 0.00 | 0.05 | 0.00 | 95 | 998.9 |
| 20260905023047 | 8 | 0 | 0.0 | 0.0 | 0.00 | 0.05 | 0.00 | 95 | 998.8 |
| 20260905022534 | 7 | 0 | 0.0 | 0.0 | 0.00 | 0.05 | 0.00 | 95 | 998.9 |
| 20260905022034 | 7 | 0 | 0.0 | 0.0 | 0.00 | 0.05 | 0.00 | 95 | 998.8 |
| 20260905021556 | 7 | 0 | 0.0 | 1.6 | 0.00 | 0.05 | 0.00 | 95 | 998.8 |
| 20260905021034 | 7 | 0 | 0.0 | 1.6 | 0.00 | 0.05 | 0.00 | 95 | 998.8 |
| 20260905020536 | 7 | 0 | 0.0 | 1.6 | 0.00 | 0.05 | 0.00 | 95 | 998.7 |
| 20260905020051 | 7 | 0 | 0.0 | 3.2 | 0.00 | 0.05 | 0.00 | 95 | 998.8 |
| 20260905015535 | 7 | 0 | 0.0 | 3.2 | 0.00 | 0.15 | 0.00 | 95 | 998.7 |
| 20260905015038 | 7 | 108 | 1.6 | 3.2 | 0.00 | 0.15 | 0.00 | 95 | 998.6 |
| 20260905014600 | 7 | 48 | 0.0 | 1.6 | 0.00 | 0.15 | 0.00 | 95 | 998.8 |
| 20260905014035 | 7 | 14 | 0.0 | 1.6 | 0.00 | 0.15 | 0.00 | 95 | 998.7 |
| 20260905013535 | 7 | 0 | 0.0 | 0.0 | 0.00 | 0.15 | 0.00 | 95 | 998.6 |
| 20260905013047 | 7 | 0 | 0.0 | 0.0 | 0.00 | 0.15 | 0.00 | 95 | 998.7 |
| 20260905012538 | 7 | 0 | 0.0 | 0.0 | 0.00 | 0.15 | 0.00 | 95 | 998.6 |
| 20260905012035 | 7 | 0 | 0.0 | 0.0 | 0.00 | 0.15 | 0.00 | 95 | 998.7 |
| 20260905011556 | 7 | 0 | 0.0 | 0.0 | 0.00 | 0.15 | 0.00 | 95 | 998.6 |
| 20260905011035 | 8 | 0 | 0.0 | 0.0 | 0.00 | 0.15 | 0.00 | 95 | 998.6 |
| 20260905010538 | 7 | 0 | 0.0 | 0.0 | 0.00 | 0.15 | 0.00 | 95 | 998.5 |
| 20260905010050 | 7 | 0 | 0.0 | 1.6 | 0.00 | 0.15 | 0.00 | 95 | 998.6 |
| 20260905005535 | 7 | 0 | 0.0 | 1.6 | 0.00 | 0.20 | 0.00 | 95 | 998.5 |
| 20260905005034 | 7 | 0 | 0.0 | 3.2 | 0.00 | 0.20 | 0.00 | 95 | 998.5 |
| 20260905004550 | 8 | 0 | 0.0 | 3.2 | 0.00 | 0.20 | 0.00 | 95 | 998.5 |
| 20260905004034 | 8 | 353 | 0.0 | 0.0 | 0.00 | 0.20 | 0.00 | 95 | 998.4 |
| 20260905003535 | 7 | 0 | 0.0 | 0.0 | 0.00 | 0.20 | 0.00 | 95 | 998.4 |
| 20260905003044 | 7 | 0 | 0.0 | 1.6 | 0.00 | 0.20 | 0.00 | 95 | 998.6 |
| 20260905002534 | 7 | 0 | 0.0 | 3.2 | 0.00 | 0.20 | 0.00 | 94 | 998.5 |
| 20260905002035 | 7 | 289 | 0.0 | 3.2 | 0.00 | 0.20 | 0.00 | 95 | 998.4 |
| 20260905001552 | 8 | 300 | 0.0 | 3.2 | 0.00 | 0.20 | 0.00 | 95 | 998.3 |
| 20260905001035 | 8 | 0 | 0.0 | 0.0 | 0.00 | 0.20 | 0.00 | 95 | 998.3 |
| 20260905000538 | 7 | 0 | 0.0 | 0.0 | 0.00 | 0.20 | 0.00 | 95 | 998.5 |
| 20260905000105 | 8 | 0 | 0.0 | 0.0 | 0.00 | 0.20 | 0.00 | 95 | 998.4 |
| 20260904235531 | 8 | 0 | 0.0 | 1.6 | 0.00 | 0.20 | 0.00 | 95 | 998.3 |
| 20260904235032 | 7 | 0 | 0.0 | 1.6 | 0.00 | 0.20 | 0.00 | 94 | 998.4 |
| 20260904234606 | 7 | 110 | 0.0 | 1.6 | 0.00 | 0.20 | 0.00 | 94 | 998.3 |
| 20260904234031 | 7 | 0 | 0.0 | 0.0 | 0.00 | 0.20 | 0.00 | 94 | 998.2 |
| 20260904233534 | 7 | 0 | 0.0 | 0.0 | 0.00 | 0.20 | 0.00 | 94 | 998.2 |
| 20260904233056 | 7 | 0 | 0.0 | 1.6 | 0.00 | 0.20 | 0.00 | 94 | 998.2 |
| 20260904232536 | 8 | 0 | 0.0 | 4.8 | 0.00 | 0.20 | 0.00 | 94 | 998.1 |
| 20260904232035 | 8 | 356 | 1.6 | 4.8 | 0.00 | 0.20 | 0.00 | 94 | 998.2 |
| 20260904231553 | 8 | 352 | 1.6 | 3.2 | 0.00 | 0.20 | 0.00 | 94 | 998.1 |
| 20260904231035 | 8 | 355 | 0.0 | 3.2 | 0.00 | 0.20 | 0.00 | 94 | 998.2 |
| 20260904230535 | 8 | 352 | 0.0 | 3.2 | 0.00 | 0.20 | 0.00 | 94 | 998.2 |
| 20260904230048 | 8 | 0 | 0.0 | 0.0 | 0.00 | 0.20 | 0.00 | 94 | 998.3 |
| 20260904225531 | 8 | 0 | 0.0 | 0.0 | 0.00 | 0.20 | 0.00 | 94 | 998.3 |
| 20260904225034 | 8 | 0 | 0.0 | 0.0 | 0.00 | 0.20 | 0.00 | 94 | 998.3 |
| 20260904224546 | 8 | 0 | 0.0 | 0.0 | 0.00 | 0.20 | 0.00 | 93 | 998.3 |
| 20260904224035 | 8 | 0 | 0.0 | 0.0 | 0.00 | 0.20 | 0.00 | 93 | 998.2 |
| 20260904223536 | 8 | 0 | 0.0 | 0.0 | 0.00 | 0.20 | 0.00 | 93 | 998.2 |
| 20260904223056 | 8 | 0 | 0.0 | 0.0 | 0.00 | 0.20 | 0.00 | 93 | 998.1 |
| 20260904222533 | 8 | 0 | 0.0 | 0.0 | 0.00 | 0.20 | 0.00 | 93 | 998.2 |
| 20260904222032 | 8 | 0 | 0.0 | 0.0 | 0.00 | 0.20 | 0.00 | 93 | 998.3 |
| 20260904221600 | 8 | 0 | 0.0 | 0.0 | 0.00 | 0.20 | 0.00 | 93 | 998.2 |
| 20260904221033 | 8 | 0 | 0.0 | 0.0 | 0.00 | 0.20 | 0.00 | 93 | 998.3 |
| 20260904220532 | 8 | 0 | 0.0 | 0.0 | 0.00 | 0.20 | 0.00 | 93 | 998.3 |
| 20260904220111 | 8 | 0 | 0.0 | 0.0 | 0.00 | 0.20 | 0.00 | 92 | 998.2 |
| 20260904215532 | 8 | 0 | 0.0 | 0.0 | 0.00 | 0.20 | 0.20 | 92 | 998.2 |
| 20260904215031 | 8 | 0 | 0.0 | 0.0 | 0.00 | 0.20 | 0.20 | 92 | 998.1 |
| 20260904214553 | 8 | 0 | 0.0 | 0.0 | 0.00 | 0.20 | 0.20 | 92 | 998.1 |
| 20260904214032 | 8 | 0 | 0.0 | 0.0 | 0.00 | 0.20 | 0.20 | 92 | 998.0 |
| 20260904213532 | 9 | 0 | 0.0 | 0.0 | 0.00 | 0.20 | 0.20 | 92 | 998.1 |
| 20260904213054 | 9 | 0 | 0.0 | 0.0 | 0.00 | 0.20 | 0.20 | 92 | 998.0 |
| 20260904212532 | 9 | 0 | 0.0 | 0.0 | 0.00 | 0.20 | 0.20 | 92 | 998.0 |
| 20260904212032 | 9 | 0 | 0.0 | 0.0 | 0.00 | 0.20 | 0.20 | 91 | 998.1 |
| 20260904211555 | 9 | 0 | 0.0 | 0.0 | 0.00 | 0.20 | 0.20 | 91 | 998.1 |
| 20260904211032 | 9 | 0 | 0.0 | 0.0 | 0.00 | 0.20 | 0.20 | 91 | 998.0 |
| 20260904210532 | 9 | 0 | 0.0 | 0.0 | 0.00 | 0.20 | 0.20 | 91 | 997.8 |
| 20260904210100 | 9 | 0 | 0.0 | 0.0 | 0.00 | 0.20 | 0.20 | 90 | 997.9 |
| 20260904205533 | 10 | 0 | 0.0 | 0.0 | 0.00 | 0.20 | 0.20 | 90 | 997.9 |
| 20260904205034 | 10 | 0 | 0.0 | 3.2 | 0.00 | 0.20 | 0.20 | 90 | 997.9 |
| 20260904204555 | 10 | 0 | 0.0 | 3.2 | 0.00 | 0.20 | 0.20 | 90 | 998.0 |
| 20260904204032 | 10 | 342 | 1.6 | 4.8 | 0.00 | 0.20 | 0.20 | 89 | 997.9 |
| 20260904203532 | 10 | 349 | 1.6 | 4.8 | 0.00 | 0.20 | 0.20 | 90 | 998.0 |
| 20260904203048 | 10 | 352 | 4.8 | 6.4 | 0.00 | 0.20 | 0.20 | 90 | 997.9 |
| 20260904202535 | 10 | 340 | 4.8 | 6.4 | 0.00 | 0.20 | 0.20 | 90 | 997.9 |
| 20260904202035 | 10 | 335 | 4.8 | 6.4 | 0.00 | 0.20 | 0.20 | 90 | 998.0 |
| 20260904201556 | 10 | 21 | 0.0 | 3.2 | 0.00 | 0.20 | 0.20 | 90 | 998.0 |
| 20260904201031 | 10 | 0 | 0.0 | 0.0 | 0.00 | 0.20 | 0.20 | 90 | 998.1 |
| 20260904200533 | 10 | 0 | 0.0 | 0.0 | 0.00 | 0.20 | 0.20 | 90 | 997.9 |
| 20260904200121 | 10 | 0 | 0.0 | 0.0 | 0.00 | 0.20 | 0.20 | 89 | 998.0 |
| 20260904195535 | 10 | 0 | 0.0 | 0.0 | 0.00 | 0.20 | 0.20 | 89 | 998.0 |
| 20260904195035 | 10 | 0 | 0.0 | 0.0 | 0.00 | 0.20 | 0.20 | 88 | 997.9 |
| 20260904194631 | 10 | 0 | 0.0 | 0.0 | 0.00 | 0.20 | 0.20 | 88 | 998.0 |
| 20260904194032 | 10 | 0 | 0.0 | 0.0 | 0.00 | 0.20 | 0.20 | 87 | 998.0 |
| 20260904193532 | 10 | 0 | 0.0 | 3.2 | 0.00 | 0.20 | 0.20 | 87 | 998.0 |
| 20260904193047 | 10 | 0 | 0.0 | 3.2 | 0.00 | 0.20 | 0.20 | 87 | 997.9 |
| 20260904192531 | 11 | 325 | 1.6 | 3.2 | 0.00 | 0.20 | 0.20 | 86 | 998.0 |
| 20260904192034 | 11 | 0 | 0.0 | 3.2 | 0.00 | 0.20 | 0.20 | 86 | 997.9 |
| 20260904191610 | 11 | 7 | 1.6 | 4.8 | 0.00 | 0.20 | 0.20 | 85 | 998.0 |
| 20260904191032 | 11 | 0 | 1.6 | 4.8 | 0.00 | 0.20 | 0.20 | 85 | 998.1 |
| 20260904190532 | 11 | 0 | 0.0 | 0.0 | 0.00 | 0.20 | 0.20 | 85 | 998.1 |
| 20260904190057 | 11 | 0 | 0.0 | 0.0 | 0.00 | 0.20 | 0.20 | 84 | 998.1 |
| 20260904185532 | 11 | 0 | 0.0 | 0.0 | 0.00 | 0.20 | 0.20 | 83 | 998.0 |
| 20260904185032 | 11 | 0 | 0.0 | 0.0 | 0.00 | 0.20 | 0.20 | 82 | 998.0 |
| 20260904184554 | 12 | 0 | 0.0 | 0.0 | 0.00 | 0.20 | 0.20 | 82 | 998.0 |
| 20260904184034 | 12 | 0 | 0.0 | 0.0 | 0.00 | 0.20 | 0.20 | 81 | 997.9 |
| 20260904183535 | 12 | 0 | 0.0 | 0.0 | 0.00 | 0.20 | 0.20 | 81 | 997.9 |
| 20260904183055 | 12 | 0 | 0.0 | 0.0 | 0.00 | 0.20 | 0.20 | 80 | 997.9 |
| 20260904182536 | 12 | 0 | 0.0 | 0.0 | 0.00 | 0.20 | 0.20 | 79 | 997.9 |
| 20260904182034 | 12 | 0 | 0.0 | 0.0 | 0.00 | 0.20 | 0.20 | 80 | 997.8 |
| 20260904181555 | 12 | 0 | 0.0 | 0.0 | 0.00 | 0.20 | 0.20 | 80 | 997.9 |
| 20260904181128 | 12 | 0 | 0.0 | 0.0 | 0.00 | 0.20 | 0.20 | 81 | 997.9 |
| 20260904180532 | 11 | 0 | 0.0 | 0.0 | 0.00 | 0.20 | 0.20 | 82 | 997.7 |
| 20260904180052 | 11 | 0 | 0.0 | 0.0 | 0.00 | 0.20 | 0.20 | 83 | 997.9 |
| 20260904175531 | 12 | 0 | 0.0 | 0.0 | 0.00 | 0.20 | 0.20 | 82 | 997.9 |
| 20260904175033 | 12 | 0 | 0.0 | 0.0 | 0.00 | 0.20 | 0.20 | 81 | 997.9 |
| 20260904174547 | 12 | 0 | 0.0 | 0.0 | 0.00 | 0.20 | 0.20 | 81 | 997.9 |
| 20260904174032 | 12 | 0 | 0.0 | 0.0 | 0.00 | 0.20 | 0.20 | 81 | 997.9 |
| 20260904173534 | 12 | 0 | 0.0 | 0.0 | 0.00 | 0.20 | 0.20 | 82 | 997.9 |
| 20260904173103 | 12 | 0 | 0.0 | 0.0 | 0.00 | 0.20 | 0.20 | 81 | 997.9 |
| 20260904172531 | 12 | 0 | 0.0 | 0.0 | 0.00 | 0.20 | 0.20 | 80 | 997.9 |
| 20260904172034 | 13 | 0 | 0.0 | 0.0 | 0.00 | 0.20 | 0.20 | 81 | 997.8 |
| 20260904171558 | 13 | 0 | 0.0 | 0.0 | 0.00 | 0.20 | 0.20 | 81 | 997.8 |
| 20260904171032 | 13 | 0 | 0.0 | 0.0 | 0.00 | 0.20 | 0.20 | 80 | 997.7 |
| 20260904170534 | 13 | 0 | 0.0 | 0.0 | 0.00 | 0.20 | 0.20 | 80 | 997.7 |
| 20260904170047 | 13 | 0 | 0.0 | 0.0 | 0.00 | 0.20 | 0.20 | 80 | 997.7 |
| 20260904165532 | 13 | 0 | 0.0 | 0.0 | 0.00 | 0.20 | 0.20 | 79 | 997.7 |
| 20260904165032 | 13 | 0 | 0.0 | 0.0 | 0.00 | 0.20 | 0.20 | 79 | 997.6 |
| 20260904164559 | 14 | 0 | 0.0 | 0.0 | 0.00 | 0.20 | 0.20 | 78 | 997.6 |
| 20260904164037 | 14 | 0 | 0.0 | 0.0 | 0.00 | 0.20 | 0.20 | 77 | 997.7 |
| 20260904163531 | 14 | 0 | 0.0 | 0.0 | 0.00 | 0.20 | 0.20 | 75 | 997.7 |
| 20260904163051 | 14 | 126 | 0.0 | 0.0 | 0.00 | 0.20 | 0.20 | 75 | 997.7 |
| 20260904162534 | 14 | 0 | 0.0 | 0.0 | 0.00 | 0.20 | 0.20 | 74 | 997.8 |
| 20260904162034 | 14 | 0 | 0.0 | 0.0 | 0.00 | 0.20 | 0.20 | 74 | 997.8 |
| 20260904161548 | 14 | 0 | 0.0 | 0.0 | 0.00 | 0.20 | 0.20 | 73 | 997.7 |
| 20260904161032 | 14 | 0 | 0.0 | 0.0 | 0.00 | 0.20 | 0.20 | 72 | 997.7 |
| 20260904160532 | 15 | 0 | 0.0 | 1.6 | 0.00 | 0.20 | 0.20 | 71 | 997.7 |
| 20260904160047 | 15 | 0 | 0.0 | 1.6 | 0.00 | 0.20 | 0.20 | 72 | 997.7 |
| 20260904155533 | 15 | 0 | 0.0 | 1.6 | 0.00 | 0.20 | 0.20 | 72 | 997.8 |
| 20260904155031 | 15 | 0 | 0.0 | 4.8 | 0.00 | 0.20 | 0.20 | 73 | 997.7 |
| 20260904154545 | 15 | 0 | 0.0 | 4.8 | 0.00 | 0.20 | 0.20 | 72 | 997.7 |
| 20260904154031 | 15 | 120 | 1.6 | 4.8 | 0.00 | 0.20 | 0.20 | 71 | 997.7 |
| 20260904153531 | 16 | 0 | 0.0 | 4.8 | 0.00 | 0.20 | 0.20 | 71 | 997.7 |
| 20260904153053 | 16 | 91 | 1.6 | 4.8 | 0.00 | 0.20 | 0.20 | 71 | 997.8 |
| 20260904152531 | 16 | 164 | 1.6 | 4.8 | 0.00 | 0.20 | 0.20 | 73 | 997.8 |
| 20260904152035 | 15 | 219 | 1.6 | 4.8 | 0.00 | 0.20 | 0.20 | 73 | 997.9 |
| 20260904151552 | 15 | 211 | 1.6 | 6.4 | 0.00 | 0.20 | 0.20 | 76 | 997.8 |
| 20260904151033 | 15 | 195 | 3.2 | 8.0 | 0.00 | 0.20 | 0.20 | 75 | 997.9 |
| 20260904150534 | 15 | 207 | 3.2 | 8.0 | 0.00 | 0.20 | 0.20 | 75 | 997.9 |
| 20260904150054 | 15 | 167 | 4.8 | 8.0 | 0.00 | 0.20 | 0.20 | 76 | 997.8 |
| 20260904145532 | 15 | 197 | 1.6 | 4.8 | 0.00 | 0.20 | 0.20 | 76 | 998.0 |
| 20260904145035 | 15 | 117 | 0.0 | 3.2 | 0.00 | 0.20 | 0.20 | 76 | 997.9 |
| 20260904144554 | 15 | 137 | 0.0 | 4.8 | 0.00 | 0.20 | 0.20 | 75 | 997.9 |
| 20260904144033 | 15 | 198 | 0.0 | 6.4 | 0.00 | 0.20 | 0.20 | 76 | 997.8 |
| 20260904143534 | 15 | 129 | 3.2 | 6.4 | 0.00 | 0.20 | 0.20 | 76 | 997.9 |
| 20260904143052 | 15 | 113 | 3.2 | 4.8 | 0.00 | 0.20 | 0.20 | 74 | 997.9 |
| 20260904142538 | 15 | 0 | 3.2 | 4.8 | 0.00 | 0.20 | 0.20 | 75 | 997.9 |
| 20260904142034 | 15 | 124 | 1.6 | 3.2 | 0.00 | 0.20 | 0.20 | 74 | 997.9 |
| 20260904141622 | 15 | 77 | 0.0 | 3.2 | 0.00 | 0.20 | 0.20 | 74 | 997.9 |
| 20260904141031 | 15 | 224 | 0.0 | 4.8 | 0.00 | 0.20 | 0.20 | 75 | 997.9 |
| 20260904140531 | 15 | 103 | 0.0 | 8.0 | 0.00 | 0.20 | 0.20 | 75 | 997.9 |
| 20260904140106 | 15 | 105 | 3.2 | 8.0 | 0.00 | 0.20 | 0.20 | 74 | 997.9 |
| 20260904135532 | 15 | 129 | 1.6 | 4.8 | 0.00 | 0.20 | 0.20 | 73 | 997.8 |
| 20260904135035 | 16 | 154 | 0.0 | 8.0 | 0.00 | 0.20 | 0.20 | 72 | 998.0 |
| 20260904134558 | 17 | 150 | 1.6 | 8.0 | 0.00 | 0.20 | 0.20 | 73 | 997.9 |
| 20260904134032 | 16 | 95 | 3.2 | 6.4 | 0.00 | 0.20 | 0.20 | 72 | 998.0 |
| 20260904133534 | 16 | 95 | 1.6 | 4.8 | 0.00 | 0.20 | 0.20 | 75 | 998.1 |
| 20260904133106 | 15 | 136 | 1.6 | 11.3 | 0.00 | 0.20 | 0.20 | 77 | 998.1 |
| 20260904132535 | 15 | 111 | 3.2 | 11.3 | 0.00 | 0.20 | 0.20 | 77 | 998.1 |
| 20260904132032 | 15 | 100 | 3.2 | 11.3 | 0.00 | 0.20 | 0.20 | 78 | 998.2 |
| 20260904131555 | 15 | 136 | 0.0 | 6.4 | 0.00 | 0.20 | 0.20 | 77 | 998.3 |
| 20260904131031 | 15 | 101 | 0.0 | 6.4 | 0.00 | 0.20 | 0.20 | 77 | 998.3 |
| 20260904130531 | 15 | 107 | 3.2 | 6.4 | 0.00 | 0.20 | 0.20 | 79 | 998.4 |
| 20260904130054 | 15 | 129 | 0.0 | 8.0 | 0.00 | 0.20 | 0.20 | 77 | 998.5 |
| 20260904125533 | 15 | 0 | 0.0 | 8.0 | 0.00 | 0.20 | 0.20 | 77 | 998.5 |
| 20260904125037 | 15 | 217 | 3.2 | 6.4 | 0.00 | 0.20 | 0.20 | 77 | 998.6 |
| 20260904124549 | 15 | 0 | 1.6 | 3.2 | 0.00 | 0.20 | 0.20 | 78 | 998.6 |
| 20260904124034 | 15 | 0 | 0.0 | 4.8 | 0.00 | 0.20 | 0.20 | 79 | 998.7 |
| 20260904123535 | 14 | 150 | 3.2 | 4.8 | 0.00 | 0.20 | 0.20 | 79 | 998.7 |
| 20260904123047 | 14 | 143 | 0.0 | 6.4 | 0.00 | 0.20 | 0.20 | 79 | 998.7 |
| 20260904122533 | 14 | 0 | 1.6 | 6.4 | 0.00 | 0.20 | 0.20 | 77 | 998.8 |
| 20260904122031 | 14 | 108 | 1.6 | 4.8 | 0.00 | 0.20 | 0.20 | 77 | 998.7 |
| 20260904121556 | 14 | 123 | 1.6 | 4.8 | 0.00 | 0.20 | 0.20 | 78 | 998.6 |
| 20260904121031 | 14 | 288 | 0.0 | 1.6 | 0.00 | 0.20 | 0.20 | 79 | 998.7 |
| 20260904120545 | 14 | 184 | 0.0 | 3.2 | 0.00 | 0.20 | 0.20 | 80 | 998.7 |
| 20260904120047 | 14 | 148 | 0.0 | 3.2 | 0.00 | 0.20 | 0.20 | 80 | 998.8 |
| 20260904115534 | 13 | 121 | 1.6 | 3.2 | 0.00 | 0.20 | 0.20 | 81 | 998.9 |
| 20260904115031 | 13 | 129 | 0.0 | 1.6 | 0.00 | 0.20 | 0.20 | 81 | 998.9 |
| 20260904114549 | 13 | 110 | 0.0 | 3.2 | 0.00 | 0.20 | 0.20 | 81 | 999.0 |
| 20260904114034 | 13 | 0 | 1.6 | 3.2 | 0.00 | 0.20 | 0.20 | 81 | 999.0 |
| 20260904113532 | 13 | 136 | 0.0 | 3.2 | 0.00 | 0.20 | 0.20 | 81 | 999.0 |
| 20260904113046 | 13 | 293 | 0.0 | 3.2 | 0.00 | 0.20 | 0.20 | 81 | 999.0 |
| 20260904112531 | 13 | 0 | 0.0 | 1.6 | 0.00 | 0.20 | 0.20 | 82 | 999.1 |
| 20260904112035 | 13 | 0 | 0.0 | 3.2 | 0.00 | 0.20 | 0.20 | 82 | 999.0 |
| 20260904111548 | 13 | 0 | 1.6 | 3.2 | 0.00 | 0.20 | 0.20 | 82 | 999.0 |
| 20260904111031 | 13 | 345 | 0.0 | 4.8 | 0.00 | 0.20 | 0.20 | 82 | 998.9 |
| 20260904110534 | 13 | 340 | 1.6 | 6.4 | 0.00 | 0.20 | 0.20 | 81 | 999.1 |
| 20260904110052 | 13 | 343 | 1.6 | 6.4 | 0.00 | 0.20 | 0.20 | 80 | 999.0 |
| 20260904105532 | 13 | 0 | 3.2 | 8.0 | 0.00 | 0.20 | 0.20 | 81 | 999.0 |
| 20260904105031 | 13 | 331 | 3.2 | 8.0 | 0.00 | 0.20 | 0.20 | 81 | 999.1 |
| 20260904104551 | 13 | 23 | 1.6 | 8.0 | 0.00 | 0.20 | 0.20 | 80 | 999.1 |
| 20260904104030 | 13 | 335 | 1.6 | 6.4 | 0.00 | 0.20 | 0.20 | 81 | 999.1 |
| 20260904103530 | 13 | 327 | 3.2 | 9.7 | 0.00 | 0.20 | 0.20 | 82 | 999.2 |
| 20260904103051 | 13 | 309 | 6.4 | 9.7 | 0.00 | 0.20 | 0.20 | 82 | 999.2 |
| 20260904102532 | 13 | 342 | 3.2 | 9.7 | 0.00 | 0.20 | 0.20 | 82 | 999.2 |
| 20260904102032 | 13 | 350 | 4.8 | 9.7 | 0.00 | 0.20 | 0.20 | 83 | 999.2 |
| 20260904101546 | 13 | 336 | 6.4 | 9.7 | 0.00 | 0.20 | 0.20 | 82 | 999.2 |
| 20260904101032 | 13 | 301 | 4.8 | 9.7 | 0.00 | 0.20 | 0.20 | 83 | 999.3 |
| 20260904100531 | 13 | 352 | 4.8 | 9.7 | 0.00 | 0.20 | 0.20 | 81 | 999.2 |
| 20260904100054 | 13 | 335 | 1.6 | 8.0 | 0.00 | 0.20 | 0.20 | 85 | 999.3 |
| 20260904095532 | 13 | 262 | 3.2 | 12.9 | 0.00 | 0.20 | 0.20 | 87 | 999.4 |
| 20260904095031 | 12 | 68 | 4.8 | 12.9 | 0.00 | 0.20 | 0.20 | 87 | 999.4 |
| 20260904094549 | 12 | 39 | 4.8 | 9.7 | 0.00 | 0.20 | 0.20 | 87 | 999.5 |
| 20260904094034 | 12 | 340 | 4.8 | 9.7 | 0.00 | 0.20 | 0.20 | 89 | 999.5 |
| 20260904093534 | 12 | 2 | 6.4 | 9.7 | 0.00 | 0.20 | 0.20 | 90 | 999.6 |
| 20260904093051 | 12 | 319 | 6.4 | 12.9 | 0.00 | 0.20 | 0.20 | 91 | 999.8 |
| 20260904092531 | 11 | 349 | 6.4 | 12.9 | 0.00 | 0.20 | 0.20 | 91 | 999.7 |
| 20260904092031 | 11 | 338 | 6.4 | 12.9 | 0.00 | 0.20 | 0.20 | 91 | 999.8 |
| 20260904091544 | 11 | 304 | 6.4 | 12.9 | 0.00 | 0.20 | 0.20 | 92 | 999.9 |
| 20260904091035 | 11 | 337 | 9.7 | 12.9 | 0.00 | 0.20 | 0.20 | 92 | 1000.0 |
| 20260904090535 | 11 | 334 | 6.4 | 11.3 | 0.00 | 0.20 | 0.20 | 92 | 999.8 |
| 20260904090053 | 11 | 335 | 8.0 | 16.1 | 0.00 | 0.20 | 0.20 | 92 | 999.8 |
| 20260904085531 | 11 | 342 | 9.7 | 16.1 | 0.00 | 0.20 | 0.20 | 92 | 1000.0 |
| 20260904085034 | 11 | 347 | 6.4 | 14.5 | 0.00 | 0.20 | 0.20 | 92 | 1000.0 |
| 20260904084548 | 11 | 323 | 6.4 | 14.5 | 0.00 | 0.20 | 0.20 | 92 | 999.8 |
| 20260904084030 | 11 | 354 | 9.7 | 14.5 | 0.00 | 0.20 | 0.20 | 92 | 999.8 |
| 20260904083532 | 11 | 310 | 6.4 | 14.5 | 0.00 | 0.20 | 0.20 | 92 | 999.9 |
| 20260904083053 | 11 | 347 | 8.0 | 14.5 | 0.00 | 0.20 | 0.20 | 92 | 999.7 |
| 20260904082533 | 11 | 327 | 6.4 | 16.1 | 0.00 | 0.20 | 0.20 | 91 | 999.7 |
| 20260904082032 | 11 | 328 | 6.4 | 16.1 | 0.00 | 0.20 | 0.20 | 91 | 999.7 |
| 20260904081551 | 11 | 341 | 9.7 | 16.1 | 0.00 | 0.20 | 0.20 | 91 | 999.7 |
| 20260904081033 | 11 | 329 | 6.4 | 9.7 | 0.00 | 0.20 | 0.20 | 91 | 999.7 |
| 20260904080533 | 11 | 359 | 4.8 | 12.9 | 0.00 | 0.20 | 0.20 | 91 | 999.7 |
| 20260904080053 | 11 | 349 | 6.4 | 12.9 | 0.00 | 0.20 | 0.20 | 91 | 999.8 |
| 20260904075534 | 11 | 323 | 6.4 | 12.9 | 0.00 | 0.20 | 0.20 | 91 | 999.7 |
| 20260904075032 | 11 | 20 | 6.4 | 11.3 | 0.00 | 0.20 | 0.20 | 91 | 999.8 |
| 20260904074546 | 11 | 316 | 4.8 | 11.3 | 0.00 | 0.20 | 0.20 | 92 | 999.8 |
| 20260904074033 | 11 | 358 | 4.8 | 9.7 | 0.00 | 0.20 | 0.20 | 92 | 999.8 |
| 20260904073533 | 11 | 4 | 6.4 | 11.3 | 0.00 | 0.20 | 0.20 | 92 | 999.8 |
| 20260904073056 | 11 | 328 | 6.4 | 11.3 | 0.00 | 0.20 | 0.20 | 92 | 999.8 |
| 20260904072534 | 11 | 38 | 6.4 | 11.3 | 0.00 | 0.20 | 0.20 | 92 | 999.9 |
| 20260904072033 | 11 | 16 | 3.2 | 8.0 | 0.00 | 0.20 | 0.20 | 92 | 1000.0 |
| 20260904071552 | 11 | 327 | 4.8 | 11.3 | 0.00 | 0.20 | 0.20 | 92 | 999.8 |
| 20260904071037 | 11 | 308 | 4.8 | 12.9 | 0.00 | 0.20 | 0.20 | 92 | 999.8 |
| 20260904070533 | 11 | 357 | 4.8 | 12.9 | 0.00 | 0.20 | 0.20 | 93 | 1000.0 |